Location: Marcé
(47.5801°N, 0.3280°W)
Time: 23:13:45
(UTC+01:00)

Transit 2A - Pass Details

Date: 09 December 2021
Orbit: 591 x 967 km, 66.7° (Epoch: 23 January)

Event Time Altitude Azimuth Distance (km) Brightness Sun altitude
Rises 23:36:36 0° 204° (SSW) 3,315 - -60.9°
Reaches altitude 10° 23:38:56 10° 202° (SSW) 2,441 - -61.1°
Maximum altitude 23:44:35 70° 120° (ESE) 953 - -61.7°
Drops below altitude 10° 23:50:47 10° 38° (NE) 2,665 - -62.3°
Sets 23:53:26 0° 36° (NE) 3,640 - -62.5°
